sat.trackr.live / text

‹ back to catalog

2025-180E

NORAD 65263 · 2025-180E

PAYLOAD ACTIVE UNKNOWN

§ Identity

Operator
Country
TBD
Launch date
2025-08-19
Launch site
JSC
Launch vehicle
Mass (kg)
RCS (m²)

External: N2YO · Heavens-Above · Gunter

§ Orbital elements

Epoch: 2026-09-20T22:54:05.981760Z

Period
94.96 min
Inclination
97.4789°
Eccentricity
0.0001618
Mean motion
15.16356124 rev/d
Perigee alt
515.7 km
Apogee alt
518.0 km
Semi-major
6,895.0 km
B*
1.0691e-4
RAAN
29.6322°
Arg perigee
85.1392°
Mean anomaly
275.0026°
Rev number
6,023

§ Raw data

2025-180E1 65263U 25180E   26263.95423590  .00002007  00000+0  10691-3 0  99922 65263  97.4789  29.6322 0001618  85.1392 275.0026 15.16356124 60233

JSON: /api/v1/satellites/65263 · /tle

For live sub-satellite position, see the globe view (requires WebGL).

§ Visibility from observer

Set your observer location to see the next 7 days of passes ≥ 10°. The values pass through the URL so the page stays shareable.

No JS? Fill the form by hand. The geolocation button needs JavaScript.